Regional Weather Roundup
Issued by NWS Newport/Morehead, NC

Home | Current Version | Previous Version | Text Only | Print | Product List | Glossary On
Versions: 1 2 3 4 5 6 7 8 9 10 11 12 13 14 15 16 17 18 19 20 21 22 23 24 25 26 27 28 29 30 31 32 33 34 35 36 37 38 39 40 41 42 43 44 45 46 47 48 49 50
000
ASUS42 KMHX 241925
RWRMHX
WEATHER ROUNDUP FOR EASTERN NORTH CAROLINA
NATIONAL WEATHER SERVICE NEWPORT/MOREHEAD CITY NC
300 PM EDT SUN SEP 24 2017

NOTE: "FAIR" INDICATES FEW OR NO CLOUDS BELOW 12,000 FEET
WITH NO SIGNIFICANT WEATHER AND/OR OBSTRUCTIONS TO VISIBILITY

NCZ015>017-031-032-045>047-102-103-242000-
NORTH COAST

CITY           SKY/WX    TMP DP  RH WIND       PRES   REMARKS
EDENTON        SUNNY     86  69  55 E7        30.01F
ELIZABETH CITY SUNNY     85  65  51 NE12      30.01F
KITTY HAWK     CLEAR     76  67  75 CALM      30.00F
MANTEO         SUNNY     78  69  74 NE14      30.00F

$$

NCZ045>047-081-094-103-104-242000-
CENTRAL COAST

CITY           SKY/WX    TMP DP  RH WIND       PRES   REMARKS
FRISCO         SUNNY     80  69  69 NE8G21    29.99F

$$

NCZ095-097-098-100-101-242000-
SOUTHERN COAST

CITY           SKY/WX    TMP DP  RH WIND       PRES   REMARKS
BEAUFORT       SUNNY     83  64  52 NE14G24   29.97F
CEDAR ISLAND   NOT AVBL
JACKSONVILLE   MOSUNNY   86  68  54 NE13      29.97F
PINEY ISLAND     N/A    N/A N/A N/A NE16G24   29.98F
WILMINGTON     MOSUNNY   85  67  54 NE17      29.96F


$$

NCZ011>013-027>030-043-044-078>080-089-090>093-098-242000-
COASTAL PLAIN

CITY           SKY/WX    TMP DP  RH WIND       PRES   REMARKS
AHOSKIE        SUNNY     85  59  41 NE7       30.01F
CLINTON        PTSUNNY   85  68  56 N9        29.99F
ELIZABETHTOWN  NOT AVBL
GOLDSBORO      MOSUNNY   84  66  53 NE14      29.98F
GREENVILLE     MOSUNNY   86  63  45 E13       30.01F
HAVELOCK       MOSUNNY   85  70  60 E13       29.99F
KENANSVILLE    PTSUNNY   82  66  57 NE5       29.99F
KINSTON        MOSUNNY   86  64  48 N14       30.00F
NEW BERN       MOSUNNY   85  67  54 NE12      29.99F
RICHLANDS      PTSUNNY   84  68  58 NE10      29.98F
ROCKY MOUNT    MOSUNNY   87  61  41 N12       30.01F
WASHINGTON     SUNNY     86  63  45 NE12G18   30.00F
WHITEVILLE     CLOUDY    83  67  59 NE7       29.96F

$$

AMZ130-135-150-152-154-156-158-170-250-252-270-ANZ085-086-088-633-658-670-242000-
MARINE OBSERVATIONS

STATION/POSITION TIME  TEMP    WIND        PRES    WAVE   SWELL
                       AIR SEA DIR/SP/G            HT/PER HT/PER
                 (UTC) (F)     (DEG/KT/KT) (MB)    (FT/S) (FT/S)
CHESAPEAKE LIGHT NOT AVBL
64 E VA BEACH    1850   71 72   10/  8/ 10 1017.1    8/13   8/13
DUCK             1900   74 77   40/ 14/ 15 1016.1
2 E DUCK         1900      77                N/A     4/14   3/14
OREGON INLET     1900   75 77   10/ 14/ 17 1015.6
13E OREGON INLT  1848      75                N/A     6/13   7/13
HATTERAS CG      1900   75 78   20/ 17/ 20 1015.1
DIAMOND BUOY     1850   75 80   20/ 17/ 21 1014.5   10/14  10/14
CAPE LOOKOUT     1900   78      30/ 21/ 25 1014.5
BEAUFORT LAB     1900   82 76   40/ 13/ 17 1014.2
30 SE NEW RVR IN 1908   78      50/ 19/ 25 1013.9
30 SE NEW RVR IN NOT AVBL
27 SE WRIGHTSVLE 1908   79 80   80/ 19/ 27 1013.6
5 SE WRIGHTSVLE  1808   79 79   70/ 12/ 19 1014.8
225 S CAPE HAT   1850   80 80   40/ 29/ 35 1006.3   20/15  15/15
41 SE CHARLESTON 1910   78 81   30/ 21/ 25 1012.8

$$




USA.gov is the U.S. government's official web portal to all federal, state and local government web resources and services.